Time,B instrument,Bx,By,Bz,sigma B,Ion instrument,Status,Tp_par,Tp_perp,carrot,r_sun,clat,clong,earth_he_angle,n_p,vp_x,vp_y,vp_z,vth_p_par,vth_p_perp
1980-12-28 00:27:06,-1,nan,nan,nan,nan,1,3,nan,nan,1703,0.54185206,6.9242287,113.02905,266.01343,nan,361.241,31.1341,10.9658,nan,nan
1980-12-28 01:10:18,-1,nan,nan,nan,nan,1,3,nan,nan,1703,0.54223001,6.9217405,112.67285,266.05176,nan,406.369,25.7362,33.5359,nan,nan
1980-12-28 01:53:30,-1,nan,nan,nan,nan,1,3,nan,nan,1703,0.5426079,6.9192438,112.31641,266.08984,nan,347.875,-52.1457,-43.0713,nan,nan
1980-12-28 02:00:34,-1,nan,nan,nan,nan,1,3,nan,nan,1703,0.54266942,6.9188375,112.25635,266.09619,nan,364.227,-38.7099,47.7289,nan,nan
1980-12-28 03:41:24,-1,nan,nan,nan,nan,1,4,nan,nan,1703,0.54355627,6.9129448,111.42773,266.18555,nan,nan,nan,nan,nan,nan
1980-12-28 03:42:45,-1,nan,nan,nan,nan,1,3,nan,nan,1703,0.54356509,6.9128866,111.41284,266.18628,nan,328.763,-42.1686,-9.33636,nan,nan
1980-12-28 03:43:50,-1,nan,nan,nan,nan,1,3,nan,nan,1703,0.54172319,6.9242396,110.99298,265.77423,nan,328.245,-39.8519,3.55102,nan,nan
1980-12-28 03:44:06,-1,nan,nan,nan,nan,1,3,nan,nan,1703,0.54358262,6.9127693,111.40308,266.18823,nan,326.023,-44.4296,-3.88875,nan,nan
1980-12-28 03:45:11,-1,nan,nan,nan,nan,1,3,nan,nan,1703,0.54359138,6.9127111,111.396,266.18896,nan,324.692,-34.1113,-1.38376,nan,nan
1980-12-28 03:46:32,-1,nan,nan,nan,nan,1,3,nan,nan,1703,0.5436002,6.912652,111.38525,266.18994,nan,329.015,-31.3458,-7.33732,nan,nan
1980-12-28 03:47:53,-1,nan,nan,nan,nan,1,3,nan,nan,1703,0.54360896,6.9125938,111.37036,266.19067,nan,329.582,-25.7692,-13.4152,nan,nan
1980-12-28 03:49:14,-1,nan,nan,nan,nan,1,3,nan,nan,1703,0.54362649,6.9124765,111.3606,266.19263,nan,328.872,-27.785,-20.5689,nan,nan
1980-12-28 03:50:35,1,16.3,-1.55,1.26667,0.7603,1,1,56984.3,110532.0,1703,0.54363531,6.9124184,111.34961,266.19336,12.4406,328.667,-27.4529,-14.5088,30.6715,42.7172
1980-12-28 03:51:56,1,16.25,-1.16667,-0.2,0.71278,1,1,63200.4,116522.0,1703,0.54364407,6.9123602,111.33887,266.19434,12.9096,328.34,-32.7334,-20.8727,32.3011,43.8594
1980-12-28 03:53:17,1,16.1833,-1.88333,0.4,1.02605,1,1,63715.3,118973.0,1703,0.54366165,6.9122429,111.32886,266.19604,13.9843,329.395,-18.8265,-10.6935,32.4325,44.3182
1980-12-28 03:54:38,1,16.0333,-0.383333,2.66667,0.485627,1,1,63904.1,119380.0,1703,0.54367042,6.9121847,111.31812,266.19702,12.6625,331.725,-32.3753,-32.8092,32.4805,44.394
1980-12-28 03:55:59,1,16.0333,-2.81667,-1.85037e-17,0.712,1,1,72891.9,111312.0,1703,0.54367918,6.9121256,111.30322,266.19775,13.3086,335.611,-9.03335,-23.0494,34.6895,42.8676
1980-12-28 03:57:20,1,15.7667,-3.73333,-0.8,0.362093,1,1,55685.5,118747.0,1703,0.54369676,6.9120092,111.29346,266.19971,13.3619,329.999,-14.8581,-8.56052,30.32,44.2761
1980-12-28 03:58:41,1,15.6667,-3.65,-2.53333,0.200693,1,1,71552.9,122646.0,1703,0.54370552,6.9119501,111.28247,266.20044,14.2783,328.715,-15.3336,-3.05281,34.3694,44.997
1980-12-28 04:00:02,1,16.1167,-2.5,-1.6,0.247768,1,1,60389.6,121150.0,1703,0.54372311,6.9118338,111.27271,266.20239,13.2472,329.168,-21.4667,-4.10844,31.5747,44.7219
1980-12-28 04:01:23,1,15.8,-3.21667,-1.8,0.542883,1,1,69400.6,114420.0,1703,0.54373187,6.9117746,111.26172,266.20313,13.975,327.972,-18.4993,-1.04416,33.8485,43.4618
1980-12-28 04:02:44,1,15.9667,-2.51667,-2.0,0.483333,1,1,62509.6,116194.0,1703,0.54374063,6.9117165,111.25098,266.2041,13.5947,328.571,-19.7087,-4.19599,32.1241,43.7975
1980-12-28 04:04:05,1,15.8,-3.5,-1.26667,0.292499,1,1,58327.4,114037.0,1703,0.54375815,6.9115992,111.24097,266.20581,13.0678,329.827,-15.3555,-8.31443,31.0309,43.3892
1980-12-28 04:05:26,1,15.3667,-4.33333,-1.4,0.440959,1,1,62926.6,107603.0,1703,0.54376698,6.91154,111.22632,266.20679,13.7029,331.859,-9.24665,-6.16406,32.2311,42.1474
1980-12-28 04:06:47,1,15.2667,-4.48333,-0.666667,0.25,1,1,63817.9,108996.0,1703,0.54377574,6.9114819,111.21533,266.20752,13.354,338.374,0.907722,-6.83159,32.4586,42.4193
1980-12-28 04:08:08,1,15.3333,-4.21667,-1.86667,0.672681,1,1,59181.9,116682.0,1703,0.54379326,6.9113646,111.20532,266.20923,12.9935,333.101,-5.92197,-9.65899,31.2574,43.8894
1980-12-28 04:09:29,1,15.3667,-4.5,-1.4,0.298142,1,1,60757.4,103001.0,1703,0.54380208,6.9113054,111.19458,266.21021,12.8396,332.865,-10.2275,-10.2709,31.6707,41.2362
1980-12-28 04:10:50,1,15.1667,-4.48333,-1.86667,0.662697,1,1,60138.1,113131.0,1703,0.54381084,6.9112473,111.18384,266.21118,13.5522,332.472,-11.6406,-16.073,31.5089,43.2165
1980-12-28 04:12:11,1,14.7333,-5.51667,-1.33333,0.482183,1,1,71634.4,109988.0,1703,0.54382837,6.91113,111.17383,266.21289,13.6097,335.906,-4.21827,-4.56545,34.3889,42.6118
1980-12-28 04:13:32,1,14.0,-7.16667,-1.33333,0.409607,1,1,61653.8,107797.0,1703,0.54383719,6.9110708,111.15894,266.21362,13.3323,340.034,4.31474,-8.91911,31.9035,42.1852
1980-12-28 04:14:53,1,14.2667,-6.2,-2.6,1.86964,1,1,70521.5,111319.0,1703,0.54384595,6.9110126,111.14819,266.2146,13.3334,335.727,0.0939056,-0.893652,34.1207,42.8689
1980-12-28 04:16:14,1,15.9667,-2.18333,-1.0,0.321887,1,1,55577.1,104905.0,1703,0.54386348,6.9108953,111.13818,266.21631,12.5419,330.458,-22.7012,-10.6217,30.2905,41.6157
1980-12-28 04:17:35,1,15.1667,-4.41667,-2.93333,0.618466,1,1,72936.8,105082.0,1703,0.5438723,6.9108362,111.12744,266.21729,13.8371,332.404,-10.8813,-2.28373,34.7001,41.6506
1980-12-28 04:18:56,1,14.4333,-4.9,-4.96667,0.551765,1,1,67184.8,107181.0,1703,0.54388106,6.910778,111.11646,266.21802,14.1532,335.996,-10.369,8.93868,33.3038,42.0646
1980-12-28 04:35:24,-1,nan,nan,nan,nan,1,3,nan,nan,1703,0.54403025,6.9097815,110.97925,266.23315,nan,332.445,-39.8742,0.0344257,nan,nan
1980-12-28 04:36:45,1,15.5167,3.43333,-3.13333,0.631796,1,1,65157.6,102182.0,1703,0.54403901,6.9097223,110.96826,266.23389,13.6638,337.071,-64.3711,-0.769776,32.7975,41.072
1980-12-28 04:38:06,1,13.92,8.82,-1.16,0.670522,1,1,69516.8,101996.0,1703,0.54405653,6.909605,110.95825,266.2356,14.2947,340.281,-72.4334,-5.00267,33.8768,41.0345
1980-12-28 04:39:27,1,14.7,6.45714,-2.94286,1.45574,1,1,79027.9,97281.2,1703,0.54406536,6.9095469,110.94751,266.23657,13.4238,336.172,-68.0028,-1.59354,36.12,40.0749
1980-12-28 04:40:50,1,15.5333,2.26667,-3.06667,0.969536,1,1,84236.1,98003.1,1703,0.54407412,6.9094877,110.93677,266.23755,13.8715,332.37,-38.9562,-2.97068,37.2913,40.2233
1980-12-28 04:42:11,1,15.7,2.31667,-2.5,0.638792,1,1,66723.7,100403.0,1703,0.54409164,6.9093704,110.92285,266.23926,13.4392,330.94,-41.6671,-6.13071,33.1893,40.7129
1980-12-28 04:43:32,1,15.7167,0.816667,-1.66667,0.452769,1,1,65241.1,96350.9,1703,0.54410046,6.9093122,110.91187,266.23999,12.8815,331.222,-39.4821,-5.41892,32.8185,39.8828
1980-12-28 04:44:53,1,15.7,0.516667,-1.26667,0.462181,1,1,78984.1,101130.0,1703,0.54410923,6.9092531,110.90112,266.24097,13.6706,330.455,-35.1577,-9.68086,36.11,40.8599
1980-12-28 04:46:14,1,15.6,-0.266667,-0.9,1.1294,1,1,62858.7,105412.0,1703,0.54412675,6.9091358,110.89111,266.24268,12.8852,329.226,-23.1383,-9.36173,32.2137,41.7161
1980-12-28 04:47:35,1,15.6333,-0.0333333,-1.4,0.586894,1,1,59199.1,109313.0,1703,0.54413557,6.9090776,110.88037,266.24365,12.5912,327.918,-36.1186,-3.78071,31.2619,42.4809
1980-12-28 04:48:56,1,15.7333,0.683333,-1.46667,0.364005,1,1,65382.2,106036.0,1703,0.54414433,6.9090185,110.86938,266.24438,13.457,327.588,-35.2807,-10.0021,32.8539,41.8394
1980-12-28 04:50:17,1,15.0,-2.93333,0.366667,1.64553,1,1,68445.6,96462.4,1703,0.54416186,6.9089012,110.85571,266.24634,12.7319,330.703,-17.7753,-14.9517,33.6148,39.9059
1980-12-28 04:51:38,1,14.55,-4.98333,-2.16667,0.962347,1,1,56644.6,100749.0,1703,0.54417062,6.908843,110.84473,266.24707,12.7298,334.908,-7.64461,-2.47835,30.58,40.783
1980-12-28 04:52:59,1,14.0,-6.05,-3.06667,0.389087,1,1,67531.4,115322.0,1703,0.54417944,6.9087839,110.83398,266.24805,13.6946,335.659,-2.42506,4.02078,33.3896,43.6328
1980-12-28 04:54:20,1,13.9833,-5.98333,-2.73333,0.437798,1,1,55478.4,98513.2,1703,0.54419696,6.9086666,110.82397,266.24976,11.7693,334.981,-1.82666,-2.45105,30.2636,40.3278
1980-12-28 04:55:41,1,14.1667,-5.73333,-3.16667,0.925563,1,1,55579.1,107038.0,1703,0.54420573,6.9086084,110.81323,266.25073,13.4171,339.008,0.712882,4.70108,30.291,42.0366
1980-12-28 04:57:02,1,14.1667,-5.95,-3.53333,0.424591,1,1,59755.7,109458.0,1703,0.54422331,6.9084911,110.80322,266.25244,12.7413,335.79,-0.463257,2.59774,31.4085,42.5091
1980-12-28 04:58:23,1,15.3667,-2.3,-1.16667,2.38001,1,1,65341.3,107701.0,1703,0.54423207,6.908433,110.78833,266.25317,13.4837,331.404,-18.148,-11.5946,32.8437,42.1666
1980-12-28 04:59:44,1,14.8,-4.03333,-2.96667,0.874325,1,1,57483.0,107670.0,1703,0.54424083,6.9083738,110.77759,266.25415,12.2127,332.827,-8.06793,-2.16294,30.8055,42.1605
1980-12-28 05:01:05,1,15.0333,-2.26667,-2.46667,2.48059,1,1,66550.9,102584.0,1703,0.54425842,6.9082565,110.76758,266.25586,13.0242,335.09,-5.26395,12.2668,33.1463,41.1527
1980-12-28 05:02:26,1,15.0667,-2.95,-3.6,0.813258,1,1,55741.3,95790.2,1703,0.54426718,6.9081974,110.75684,266.25684,12.0891,334.28,-7.83458,10.84,30.3352,39.7666
1980-12-28 05:03:47,1,15.6833,-1.16667,-2.86667,0.546961,1,1,78204.2,98370.6,1703,0.54427594,6.9081383,110.74585,266.25757,13.1413,326.199,-27.3304,-1.37839,35.9313,40.2986
1980-12-28 05:05:08,1,15.8333,-1.03333,-1.73333,0.404145,1,1,57522.2,103138.0,1703,0.54429346,6.908021,110.73608,266.25952,12.8033,327.545,-29.6388,-2.99614,30.8159,41.2635
1980-12-28 05:06:29,1,15.3,-0.916667,-4.33333,1.39294,1,1,75721.2,111874.0,1703,0.54430223,6.9079618,110.7251,266.26025,14.0457,329.102,-27.8384,6.30553,35.3563,42.9757
1980-12-28 05:07:50,1,15.1833,-3.21667,-3.13333,0.777817,1,1,65888.0,102596.0,1703,0.54431105,6.9079027,110.71045,266.26123,13.0402,331.185,-18.4739,0.159308,32.9808,41.1551
1980-12-28 05:09:11,1,15.65,-1.6,-2.63333,0.595586,1,1,73322.7,99513.5,1703,0.54432857,6.9077854,110.70044,266.26294,13.4916,332.63,-16.8457,0.667773,34.7918,40.5321
1980-12-28 05:11:53,1,15.875,-0.9,-1.5,0.454835,2,1,27033.0,201041.0,1703,0.54434609,6.9076672,110.67871,266.26465,19.5656,330.52,-27.1723,-15.1486,21.1254,57.6104
1980-12-28 05:13:30,-1,nan,nan,nan,nan,2,4,nan,nan,1703,0.54436368,6.9075499,110.66479,266.26636,nan,nan,nan,nan,nan,nan
1980-12-28 05:14:51,1,15.425,-2.2,-2.2,0.178536,2,1,180475.0,274644.0,1703,0.54437244,6.9074907,110.65405,266.26733,44.3548,327.0,-19.7387,-13.5091,54.5842,67.3353
1980-12-28 05:16:12,-1,nan,nan,nan,nan,2,4,nan,nan,1703,0.54438996,6.9073725,110.64404,266.26904,nan,nan,nan,nan,nan,nan
1980-12-28 05:17:33,1,15.725,-1.625,-1.8,0.398434,2,1,138592.0,618959.0,1703,0.54439873,6.9073133,110.6333,266.27002,96.1206,321.635,-32.5845,12.3498,47.8328,101.085
1980-12-28 05:18:38,1,15.6333,-1.96667,-1.6,0.194365,2,1,734119.0,307568.0,1703,0.54440749,6.9072552,110.62231,266.27075,82.9983,297.595,-16.3958,-19.8721,110.088,71.2571
1980-12-28 05:19:59,1,15.825,-1.05,-1.6,0.156125,2,1,264338.0,245018.0,1703,0.54441625,6.907196,110.61157,266.27173,44.1231,330.246,-21.5988,-11.9989,66.0598,63.6
1980-12-28 05:21:20,1,15.75,-1.375,-1.6,0.446514,2,1,64719.8,111225.0,1703,0.54443383,6.9070778,110.60156,266.27344,18.1541,328.573,-28.1664,-14.3327,32.6871,42.8507
1980-12-28 05:22:41,1,15.6,-2.65,-1.5,0.844097,2,1,82796.2,246938.0,1703,0.54444259,6.9070196,110.59082,266.27441,31.6762,334.784,-30.2844,-21.0014,36.9712,63.8486
1980-12-28 05:24:02,-1,nan,nan,nan,nan,2,4,nan,nan,1703,0.54446012,6.9069014,110.5769,266.27612,nan,nan,nan,nan,nan,nan
1980-12-28 05:25:23,1,15.45,-2.25,-0.4,0.360555,2,1,151431.0,243523.0,1703,0.54446888,6.9068422,110.56616,266.2771,43.4239,331.637,-12.415,-23.4226,49.9994,63.4057
1980-12-28 05:26:44,-1,nan,nan,nan,nan,2,4,nan,nan,1703,0.5444777,6.9067841,110.55518,266.27783,nan,nan,nan,nan,nan,nan
1980-12-28 05:28:05,1,15.25,-4.3,-0.6,0.193649,2,1,119757.0,336752.0,1703,0.54449522,6.9066658,110.54517,266.27954,36.7003,324.224,-31.5708,-13.9761,44.4639,74.5612
1980-12-28 05:29:26,1,15.5,-3.4,0.333333,0.188562,2,1,73558.3,190994.0,1703,0.54450399,6.9066067,110.53442,266.28052,24.3812,338.557,-0.709564,-13.7285,34.8477,56.1524
1980-12-28 05:30:47,1,15.5,-2.775,-0.2,0.356195,2,1,136476.0,166123.0,1703,0.54451275,6.9065485,110.52368,266.28149,30.6996,328.547,-23.0918,-20.6917,47.4664,52.3688
1980-12-28 05:32:08,1,15.725,-2.45,0.5,0.352668,2,1,162937.0,63242.4,1703,0.54453027,6.9064302,110.51367,266.2832,17.1964,314.771,1.8396,-25.763,51.8643,32.3119
1980-12-28 05:33:29,1,15.65,-3.025,-1.15,0.294746,2,1,228669.0,129776.0,1703,0.54453909,6.9063711,110.49878,266.28394,33.7057,322.048,-8.36593,-3.95195,61.4415,46.2866
1980-12-28 05:34:50,1,15.42,-3.5,-1.4,0.435431,2,1,136278.0,135124.0,1703,0.54454786,6.906312,110.48804,266.28491,21.0357,332.485,2.13067,-18.7395,47.432,47.2307
1980-12-28 05:36:11,1,15.35,-3.475,-0.5,0.582559,2,1,125885.0,89198.5,1703,0.54456538,6.9061947,110.47803,266.28662,18.825,336.237,-11.2896,-5.45661,45.5873,38.374
1980-12-28 05:37:32,1,15.46,-3.58,-1.96,0.773563,2,1,154261.0,166151.0,1703,0.54457414,6.9061356,110.46729,266.2876,27.8108,331.141,-14.4459,-8.94179,50.4646,52.3732
1980-12-28 05:38:53,1,15.0,-4.5,-1.8,1.36198,2,1,186305.0,120323.0,1703,0.5445829,6.9060764,110.4563,266.28833,22.6136,343.528,-18.5256,-11.3781,55.4587,44.5689
1980-12-28 05:40:14,1,15.35,-4.375,-0.5,0.751249,2,1,118788.0,225602.0,1703,0.54460049,6.9059591,110.44653,266.29028,33.327,330.989,-4.64784,-27.4753,44.2837,61.0281
1980-12-28 05:41:35,-1,nan,nan,nan,nan,2,4,nan,nan,1703,0.54460925,6.9059,110.43164,266.29102,nan,nan,nan,nan,nan,nan
1980-12-28 05:42:56,-1,nan,nan,nan,nan,2,4,nan,nan,1703,0.54461801,6.9058409,110.4209,266.29199,nan,nan,nan,nan,nan,nan
1980-12-28 05:44:17,1,14.5,-4.625,-4.9,0.521416,2,1,154175.0,157062.0,1703,0.54463553,6.9057236,110.41089,266.2937,29.1242,321.061,-7.64554,-4.89625,50.4505,50.9206
1980-12-28 05:45:38,1,14.0,-4.26667,-6.8,0.505525,2,1,95853.3,207292.0,1703,0.5446443,6.9056644,110.40015,266.29468,33.9931,337.979,2.80639,21.9061,39.7797,58.4992
1980-12-28 05:46:59,1,13.5,-5.525,-6.5,1.09173,2,1,207029.0,377758.0,1703,0.54465312,6.9056053,110.38916,266.29541,57.7657,326.437,-10.0329,4.15253,58.462,78.9705
1980-12-28 05:48:20,1,13.7,-2.55,-8.3,0.342783,2,1,241907.0,170802.0,1703,0.54467064,6.905488,110.37915,266.29712,32.3158,329.03,-14.4146,27.822,63.1948,53.1012
1980-12-28 05:49:41,1,12.65,-7.05,-6.05,0.870345,2,1,497742.0,319533.0,1703,0.5446794,6.9054289,110.3645,266.2981,66.6691,319.527,11.6471,7.57155,90.6484,72.63
1980-12-28 05:51:02,-1,nan,nan,nan,nan,2,4,nan,nan,1703,0.54469693,6.9053106,110.35449,266.2998,nan,nan,nan,nan,nan,nan
1980-12-28 05:52:23,1,12.775,-6.775,-6.25,0.443001,2,1,122659.0,150188.0,1703,0.54470569,6.9052525,110.34375,266.30078,28.4708,341.369,9.21297,18.68,44.9994,49.7939
1980-12-28 05:55:05,1,13.0,-7.26667,-3.93333,0.444722,2,1,98615.7,333141.0,1703,0.54473203,6.9050751,110.323,266.30347,41.6329,336.412,12.2734,-17.5032,40.3488,74.1604
1980-12-28 05:56:26,1,12.9,-7.6,-4.85,0.960469,2,1,121854.0,83406.1,1703,0.5447408,6.9050169,110.31201,266.3042,21.2837,348.224,6.62952,-2.47417,44.8517,37.1071
1980-12-28 05:57:47,1,13.15,-7.375,-4.15,0.414578,2,1,112882.0,159399.0,1703,0.54474956,6.9049578,110.30127,266.30518,27.8008,337.06,16.7449,-14.5622,43.1689,51.2981
1980-12-28 05:59:08,1,13.25,-7.8,-2.9,0.304138,2,1,118832.0,110080.0,1703,0.54476708,6.9048395,110.28735,266.30688,24.6208,331.548,6.12106,11.572,44.2919,42.6298
1980-12-28 06:00:29,1,12.825,-5.7,-8.0,0.609816,2,1,307721.0,216290.0,1703,0.5447759,6.9047813,110.27661,266.30786,47.1958,333.084,-5.51774,7.59003,71.2748,59.7553
1980-12-28 06:01:50,1,14.25,-4.175,-6.05,0.954921,2,1,39337.3,78221.5,1703,0.54478467,6.9047222,110.26563,266.30859,13.5302,340.749,0.652975,9.1412,25.4836,35.9353
1980-12-28 06:03:11,1,13.025,-5.7,-7.7,0.216506,2,1,133885.0,105289.0,1703,0.54480219,6.904604,110.25562,266.3103,22.9719,360.339,10.9531,11.1308,47.0136,41.6917
1980-12-28 06:04:32,1,13.425,-3.975,-8.25,0.413824,2,1,150460.0,132196.0,1703,0.54481095,6.9045448,110.24487,266.31128,23.2016,355.157,-7.41428,15.1487,49.8389,46.7161
1980-12-28 06:05:53,-1,nan,nan,nan,nan,1,4,nan,nan,1703,0.54481971,6.9044857,110.23389,266.31201,nan,nan,nan,nan,nan,nan
1980-12-28 06:07:14,-1,nan,nan,nan,nan,1,4,nan,nan,1703,0.54483724,6.9043674,110.21997,266.31372,nan,nan,nan,nan,nan,nan
1980-12-28 06:08:35,-1,nan,nan,nan,nan,1,4,nan,nan,1703,0.544846,6.9043083,110.20923,266.3147,nan,nan,nan,nan,nan,nan
1980-12-28 06:09:56,1,13.0333,-5.25,-8.33333,1.01994,1,1,62730.7,90398.9,1703,0.54485482,6.9042492,110.19849,266.31567,12.205,345.889,2.60247,33.2581,32.1809,38.6313
1980-12-28 06:11:17,1,13.0167,-6.23333,-7.5,0.424591,1,1,57928.1,96887.5,1703,0.54487234,6.9041309,110.18848,266.31738,12.3941,341.437,0.528894,26.6347,30.9245,39.9937
1980-12-28 06:12:38,1,13.9667,-5.76667,-5.4,0.455826,1,1,61314.3,91811.9,1703,0.54488111,6.9040718,110.17749,266.31812,12.6978,338.392,1.28149,17.627,31.8155,38.9321
1980-12-28 06:13:59,1,13.85,-6.23333,-5.4,0.240947,1,1,59752.3,97144.9,1703,0.54488987,6.9040127,110.16675,266.31909,13.1114,338.398,4.07868,12.5552,31.4076,40.0468
1980-12-28 06:15:20,1,11.7,-9.33333,-5.13333,0.768838,1,1,57479.0,102617.0,1703,0.54490739,6.9038944,110.15283,266.3208,13.2481,342.683,11.1288,14.5526,30.8044,41.1593
1980-12-28 06:16:41,1,11.6,-9.46667,-4.66667,0.328295,1,1,63278.1,98863.9,1703,0.54491615,6.9038353,110.14209,266.32178,13.055,350.002,18.9649,10.7465,32.321,40.3996
1980-12-28 06:18:02,1,12.2667,-8.85,-4.73333,0.294863,1,1,67947.3,97217.4,1703,0.54493368,6.903717,110.13208,266.32349,12.7072,344.059,13.251,12.9724,33.4922,40.0618
1980-12-28 06:19:23,1,12.8,-8.0,-4.0,0.725718,1,1,67982.3,104762.0,1703,0.54494244,6.9036579,110.12109,266.32422,13.5936,339.759,12.6012,8.13601,33.5008,41.5873
1980-12-28 06:22:05,1,11.5,-9.925,-3.5,0.376663,2,1,63247.6,206599.0,1703,0.54496878,6.9034815,110.10034,266.3269,24.9531,345.392,30.483,-1.33498,32.3132,58.4012
1980-12-28 06:23:26,1,11.2,-10.175,-2.3,0.376663,2,1,132087.0,335142.0,1703,0.54497755,6.9034224,110.0896,266.32788,39.1063,340.144,25.7246,-16.7464,46.6969,74.3828
1980-12-28 06:24:47,1,11.3,-10.15,-2.3,0.269258,2,1,82555.9,122731.0,1703,0.54498631,6.9033632,110.07471,266.32861,22.3972,352.75,35.574,-9.68044,36.9175,45.0126
1980-12-28 06:26:08,1,10.75,-10.775,-0.55,0.414578,2,1,163035.0,123140.0,1703,0.54500383,6.903245,110.0647,266.33032,25.0895,352.401,42.6414,-13.8764,51.8797,45.0876
1980-12-28 06:27:29,1,11.1,-10.2,-2.66667,0.188562,2,1,87905.4,148368.0,1703,0.54501259,6.9031858,110.05396,266.3313,24.0848,333.414,23.5991,-11.5114,38.0948,49.4912
1980-12-28 06:28:50,1,11.025,-10.025,-4.1,0.44017,2,1,61842.9,52468.3,1703,0.54502136,6.9031267,110.04297,266.33203,10.0292,347.464,29.0374,2.12431,31.9523,29.4311
1980-12-28 06:30:11,1,10.825,-9.675,-4.5,0.971468,2,1,100248.0,113255.0,1703,0.54503894,6.9030085,110.0332,266.33398,16.0474,348.298,26.4825,3.36871,40.6813,43.2401
1980-12-28 06:31:32,1,10.975,-9.925,-3.8,0.329773,2,1,34106.4,73481.3,1703,0.5450477,6.9029493,110.02222,266.33472,10.8604,344.741,23.1233,8.22307,23.7288,34.8294
1980-12-28 06:32:53,1,10.675,-10.3,-3.95,1.13109,2,1,112917.0,59457.5,1703,0.54505646,6.9028902,110.00757,266.33569,15.1387,345.756,22.8126,23.9974,43.1755,31.3301
1980-12-28 06:34:14,1,10.85,-7.45,-8.75,1.15866,2,1,214744.0,65130.1,1703,0.54507399,6.9027719,109.99756,266.3374,24.2868,332.321,21.0063,35.7028,59.5413,32.7906
1980-12-28 06:35:35,-1,nan,nan,nan,nan,2,4,nan,nan,1703,0.54508275,6.9027128,109.98657,266.33813,nan,nan,nan,nan,nan,nan
1980-12-28 06:36:56,1,9.775,-10.9,-4.5,0.408503,2,1,113165.0,123569.0,1703,0.54509151,6.9026537,109.97583,266.33911,22.7198,346.915,27.4748,2.91832,43.2229,45.166
1980-12-28 06:38:17,1,9.8,-11.225,-3.7,0.227761,2,1,71951.9,49219.0,1703,0.54510903,6.9025354,109.96582,266.34082,11.8801,353.094,39.0027,-0.138761,34.4651,28.5052
1980-12-28 06:39:38,1,10.625,-10.525,-4.4,0.498748,2,1,63685.3,103622.0,1703,0.5451178,6.9024763,109.95508,266.3418,15.8902,349.602,29.6694,4.94648,32.4248,41.3603
1980-12-28 06:40:59,1,9.975,-11.65,-1.1,0.681451,2,1,58363.2,79768.2,1703,0.54512662,6.9024181,109.94019,266.34253,12.7462,353.632,29.7921,-7.70586,31.0404,36.2888
1980-12-28 06:42:20,1,10.45,-11.15,-3.2,0.6245,2,1,52947.9,93785.5,1703,0.54514414,6.9022999,109.93018,266.34424,11.7407,352.848,30.0671,-9.01066,29.5653,39.3483
1980-12-28 06:43:41,-1,nan,nan,nan,nan,2,4,nan,nan,1703,0.5451529,6.9022408,109.91943,266.34521,nan,nan,nan,nan,nan,nan
1980-12-28 06:45:02,1,7.175,-12.875,-4.5,0.757463,2,1,88345.7,49000.1,1703,0.54517043,6.9021225,109.90942,266.34692,12.7099,358.383,35.9727,2.49937,38.1901,28.4417
1980-12-28 06:46:23,1,7.675,-12.75,-4.55,0.408503,2,1,41669.2,55074.4,1703,0.54517919,6.9020634,109.89868,266.3479,12.157,370.673,40.0903,6.26033,26.228,30.1531
1980-12-28 06:47:44,1,6.225,-13.3,-5.0,0.920258,2,1,107452.0,108930.0,1703,0.54518795,6.9020042,109.8877,266.34863,19.3922,389.462,41.5594,14.2814,42.1178,42.4064
1980-12-28 06:49:05,1,7.925,-13.0,-2.65,1.41576,2,1,74259.1,98410.0,1703,0.54520547,6.901886,109.87769,266.35034,17.5539,359.581,42.0467,5.47976,35.0133,40.3067
1980-12-28 06:50:26,-1,nan,nan,nan,nan,2,4,nan,nan,1703,0.5452143,6.9018269,109.86304,266.35132,nan,nan,nan,nan,nan,nan
1980-12-28 06:51:47,1,10.45,-10.85,-4.2,0.561249,2,1,99833.2,190015.0,1703,0.54522306,6.9017677,109.85205,266.35205,32.2268,346.442,23.6326,10.4424,40.5971,56.0082
1980-12-28 06:53:08,1,10.675,-11.2,-2.35,0.435172,2,1,29017.2,83894.2,1703,0.54524058,6.9016495,109.84229,266.354,12.9301,353.094,28.6964,-0.710694,21.887,37.2155
1980-12-28 06:54:29,1,10.55,-11.35,-2.35,0.55,2,1,92903.5,62930.5,1703,0.54524934,6.9015903,109.8313,266.35474,19.8935,345.275,38.6659,1.78105,39.1628,32.2321
1980-12-28 06:55:50,-1,nan,nan,nan,nan,2,4,nan,nan,1703,0.5452581,6.9015312,109.82056,266.35571,nan,nan,nan,nan,nan,nan
1980-12-28 06:57:11,1,4.7,-12.95,-7.45,0.764853,2,1,77315.5,87054.9,1703,0.54527563,6.901413,109.81055,266.35742,15.3035,371.026,45.0866,10.8216,35.7265,37.9101
1980-12-28 06:58:32,1,1.975,-13.55,-8.4,0.528559,2,1,48908.2,111133.0,1703,0.54528439,6.9013538,109.79565,266.35815,16.2685,387.964,48.4846,23.0649,28.4151,42.8332
1980-12-28 06:59:53,-1,nan,nan,nan,nan,2,4,nan,nan,1703,0.54529321,6.9012947,109.78491,266.35913,nan,nan,nan,nan,nan,nan
1980-12-28 07:01:14,-1,nan,nan,nan,nan,2,4,nan,nan,1703,0.54531074,6.9011765,109.7749,266.36084,nan,nan,nan,nan,nan,nan
1980-12-28 07:02:35,-1,nan,nan,nan,nan,2,4,nan,nan,1703,0.5453195,6.9011173,109.76416,266.36182,nan,nan,nan,nan,nan,nan
1980-12-28 07:03:56,1,12.5,-8.8,2.2,0.0,2,1,232896.0,301011.0,1703,0.54532826,6.9010582,109.75317,266.36255,59.0104,324.036,12.725,-46.0409,62.0068,70.4934
1980-12-28 07:05:17,1,11.6,-9.9,-2.4,1.17473,2,1,133676.0,169317.0,1703,0.54534578,6.9009399,109.74316,266.36426,29.8284,351.226,29.7653,7.03605,46.9769,52.8699
1980-12-28 07:06:38,-1,nan,nan,nan,nan,2,4,nan,nan,1703,0.54535455,6.9008808,109.72852,266.36523,nan,nan,nan,nan,nan,nan
1980-12-28 07:07:59,-1,nan,nan,nan,nan,1,4,nan,nan,1703,0.54536331,6.9008217,109.71753,266.36597,nan,nan,nan,nan,nan,nan
1980-12-28 07:09:20,-1,nan,nan,nan,nan,1,4,nan,nan,1703,0.54538083,6.9007025,109.70776,266.36792,nan,nan,nan,nan,nan,nan
1980-12-28 07:10:41,1,8.15,-12.1667,-6.53333,0.627384,1,1,59583.8,96113.4,1703,0.54538959,6.9006433,109.69678,266.36865,13.2799,355.289,24.3928,23.3143,31.3633,39.8336
1980-12-28 07:12:02,1,10.1,-11.8667,-3.46667,0.371184,1,1,51692.2,96479.7,1703,0.54540712,6.9005251,109.68677,266.37036,11.2898,357.891,28.2794,12.6057,29.2126,39.9095
1980-12-28 07:13:23,1,10.1,-11.95,-2.73333,0.452462,1,1,59158.3,96776.7,1703,0.54541588,6.900466,109.67603,266.37134,13.2282,354.347,25.2453,7.24632,31.2511,39.9709
1980-12-28 07:14:44,1,11.2833,-10.7167,-2.73333,1.28128,1,1,60866.7,98686.6,1703,0.54542464,6.9004068,109.66504,266.37207,13.2158,353.241,22.398,9.3467,31.6992,40.3633
1980-12-28 07:16:05,1,10.8333,-11.4167,-1.2,1.55893,1,1,55786.9,103392.0,1703,0.54544216,6.9002876,109.65137,266.37402,12.3106,354.2,25.1823,6.70342,30.3476,41.3144